Preview of NWS' New Version of Forecast
This preview is not operational and should not be used for support decisions.

Regional Weather Roundup (RWR)

Issued by National Weather Service (NWS)

                            
000
ASUS44 KJAN 200510
RWRMS 

MISSISSIPPI HOURLY WEATHER ROUNDUP
NATIONAL WEATHER SERVICE JACKSON MS
1100 PM CST TUE FEB 19 2019

NOTE: "FAIR: INDICATES FEW OR NO CLOUDS BELOW 12,000 FEET WITH NO
SIGNIFICANT WEATHER AND/OR OBSTRUCTIONS TO VISIBILITY.

MSZ001>002-007>008-010>013-018>021-025>028-034>036-200600-
NORTHWEST MISSISSIPPI
  
CITY           SKY/WX    TMP DP  RH WIND       PRES   REMARKS
BATESVILLE     CLOUDY    48  46  93 SE12G23   29.88F                  
CLARKSDALE     CLOUDY    48  48 100 E8        29.85F                  
CLEVELAND      CLOUDY    49  49 100 SE21      29.81F THUNDER          
GREENWOOD      CLOUDY    51  48  89 S13G22    29.88F                  
GREENVILLE     CLOUDY    49  46  90 SE15      29.83F                  
OLIVE BRANCH   CLOUDY    45 N/A N/A SE8G21    29.90F FOG              
OXFORD         CLOUDY    45  45 100 SE14G22   29.92F                  
TUNICA         DRIZZLE   45  45 100 E6        29.86F                  
WINONA         CLOUDY    48  48  98 SE12G24   29.90F                  
$$

MSZ003>006-009-014>017-022>024-029>033-037>039-200600-
NORTHEAST MISSISSIPPI
  
CITY           SKY/WX    TMP DP  RH WIND       PRES   REMARKS
ABERDEEN       CLOUDY    45  45 100 SE9       30.01F                  
COLUMBUS AFB   LGT RAIN  46  45  93 SE12      29.99F                  
CORINTH        CLOUDY    46  45  93 SE15      29.97F FOG              
GOLDN TRIANGLE   N/A    N/A N/A N/A MISG        N/A                   
STARKVILLE     CLOUDY    45  45 100 SE12      30.00F                  
TUPELO         CLOUDY    46  43  89 SE14      29.98F                  
$$

MSZ040-058-200600-
CENTRAL MISSISSIPPI
  
CITY           SKY/WX    TMP DP  RH WIND       PRES   REMARKS
JACKSON INTL   CLOUDY    52  50  93 SE13G21   29.90F                  
JACKSON HAWKNS CLOUDY    52  51  97 SE13      29.91F FOG              
MADISON        CLOUDY    50  50 100 E5        29.90F                  
MERIDIAN KEY   CLOUDY    54  49  83 MISG      29.99F                  
MERIDIAN NAS   CLOUDY    51  49  92 E9        30.00F                  
RAYMOND          N/A     52  52 100 SE13      29.89F                  
VICKSBURG VKS  CLOUDY    54  54 100 SE9G16    29.87R                  
$$

MSZ059>079-200600-
SOUTH MISSISSIPPI
  
CITY           SKY/WX    TMP DP  RH WIND       PRES   REMARKS
HATTIESBURG    FOG       53  53 100 CALM      29.96F VSB 3/4          
LAUREL         CLOUDY    52  52 100 E7        29.96F VSB 1            
MCCOMB         FOG       54  52  93 E5        29.91F VSB 3/4          
NATCHEZ        CLOUDY    57  56  96 SE14      29.85F FOG              
PINE BELT      FOG       52  52 100 CALM      29.97F VSB 3/4          
$$

MSZ080>082-200600-
COASTAL MISSISSIPPI
  
CITY           SKY/WX    TMP DP  RH WIND       PRES   REMARKS
BILOXI         FOG       68  68 100 SE14      29.95F VSB 3/4          
PASCAGOULA     CLOUDY    70  67  90 SE14      29.98S FOG              
GULFPORT       FOG       67  66  97 SE20      29.95S VSB 1/2          
$$

LAZ007>009-015>016-023>026-200600-
NORTHEAST LOUISIANA
  
CITY           SKY/WX    TMP DP  RH WIND       PRES   REMARKS
BASTROP        TSTM      48  47  97 CALM      29.84S                  
TALLULAH/VBURG LGT RAIN  53  51  93 SE13      29.87S                  
VIDALIA        CLOUDY    58  56  96 SE14      29.84S                  
$$